Location: Deer Path Park
(40.5570°N, 74.8450°W)
Time: 13:27:00
(UTC-04:00)

Iridium 49 - Visible Passes

Search period start: 31 July 2015 00:00
Search period end: 10 August 2015 00:00
Orbit: 776 x 779 km, 86.4° (Epoch: 30 July)

Date Brightness Start Highest point End Pass type
(mag) Time Alt. Az. Time Alt. Az. Time Alt. Az.
31 Jul 6.9 03:48:08 10° N 03:53:10 47° E 03:58:11 10° SSE visible
01 Aug 7.9 03:15:07 10° NNE 03:19:25 26° ENE 03:23:47 10° SE visible
01 Aug 6.7 04:55:32 10° NNW 05:00:15 35° W 05:04:53 10° SSW visible
02 Aug 8.6 02:42:51 10° NE 02:45:30 14° ENE 02:48:25 10° ESE visible
02 Aug 6.0 04:21:40 10° N 04:26:51 65° W 04:31:13 14° SSW visible
03 Aug 6.2 03:48:07 10° N 03:53:20 69° E 03:57:12 18° SSE visible
04 Aug 7.3 03:14:52 10° NNE 03:19:41 37° E 03:23:13 17° SE visible
04 Aug 7.2 04:56:03 10° NNW 05:00:15 24° W 05:03:39 13° SW visible
05 Aug 8.2 02:42:04 10° NNE 02:45:52 21° ENE 02:49:16 12° ESE visible
05 Aug 6.4 04:21:56 10° NNW 04:26:53 44° W 04:29:42 23° SW visible
06 Aug 8.7 02:10:35 10° NE 02:11:53 11° ENE 02:13:32 10° E visible
06 Aug 5.9 03:48:12 10° N 03:53:27 82° W 03:55:47 34° S visible
07 Aug 6.6 03:14:46 10° N 03:19:53 54° E 03:21:53 34° SE visible
07 Aug 7.6 04:56:50 10° NW 05:00:13 17° W 05:02:19 13° WSW visible
08 Aug 7.6 02:41:41 10° NNE 02:46:10 29° ENE 02:48:01 24° ESE visible
08 Aug 6.9 04:22:20 10° NNW 04:26:54 31° W 04:28:27 26° WSW visible
09 Aug 8.3 02:09:10 10° NE 02:12:17 16° ENE 02:14:10 14° E visible
09 Aug 6.1 03:48:24 10° N 03:53:31 56° W 03:54:36 47° SW visible
